This demonstration page uses our WeatherBlox Daily Observations layout. Learn more.

Left ArrowRight Arrow

38.88101, -77.10428

Hourly Observations for May 27, 2020

Temp ( °F °C ) Dew Point ( °F °C ) Humidity (%) Winds ( mph kmh ) Pressure ( in mb ) Visibility ( mi km ) Precip ( " mm )
12:52 am 00:52 Clear 68 20 64 17.8 87 87 SSE 3 6 30.19 1022 10 16.0934 0 0
1:52 am 01:52 Mostly Cloudy 67 19.4 64 17.8 91 91 SSW 6 9 30.19 1022 10 16.0934 0 0
2:52 am 02:52 Mostly Cloudy 67 19.4 64 17.8 91 91 ESE 5 7 30.18 1022 10 16.0934 0 0
3:52 am 03:52 Mostly Cloudy 66 18.9 64 17.8 93 93 SSE 3 6 30.19 1022 10 16.0934 0 0
4:52 am 04:52 Mostly Cloudy 66 18.9 63 17.2 90 90 ESE 3 6 30.19 1022 10 16.0934 0 0
5:52 am 05:52 Mostly Cloudy 66 18.9 64 17.8 93 93 Calm 30.19 1022 10 16.0934 0 0
6:26 am 06:26 Mostly Cloudy 66 18.9 64 17.8 93 93 E 5 7 30.21 1023 9 14.48406 0 0
6:52 am 06:52 Mostly Cloudy 66 18.9 64 17.8 93 93 E 6 9 30.2 1023 10 16.0934 0 0
7:00 am 07:00 Cloudy 66 18.9 64 17.8 93 93 E 6 9 30.21 1023 10 16.0934 0 0
7:52 am 07:52 Mostly Cloudy 68 20 64 17.8 87 87 E 6 9 30.21 1023 10 16.0934 0 0
8:52 am 08:52 Cloudy 68 20 63 17.2 84 84 Calm 30.22 1023 10 16.0934 0 0
9:12 am 09:12 Cloudy 70 21.1 64 17.8 82 82 E 6 9 30.22 1023 10 16.0934 0 0
9:52 am 09:52 Cloudy 72 22.2 65 18.3 79 79 SE 3 6 30.22 1023 10 16.0934 0 0
10:08 am 10:08 Cloudy 72 22.2 65 18.3 79 79 SSE 5 7 30.22 1023 10 16.0934 0 0
10:22 am 10:22 Cloudy 72 22.2 66 18.9 82 82 S 6 9 30.21 1023 10 16.0934 0 0
10:52 am 10:52 Cloudy 74 23.3 66 18.9 76 76 S 7 11 30.21 1023 10 16.0934 0 0
11:08 am 11:08 Cloudy 74 23.3 66 18.9 76 76 SSE 8 13 30.21 1023 10 16.0934 0 0
11:52 am 11:52 Cloudy 76 24.4 66 18.9 72 72 S 8 13 30.2 1023 10 16.0934 0 0
12:22 pm 12:22 Cloudy 76 24.4 66 18.9 72 72 S 8 13 30.2 1023 10 16.0934 0 0
12:52 pm 12:52 Mostly Cloudy 75 23.9 66 18.9 74 74 S 7 11 30.19 1022 10 16.0934 0 0
1:18 pm 13:18 Cloudy 76 24.4 66 18.9 72 72 S 8 13 30.19 1022 10 16.0934 0 0
1:39 pm 13:39 Cloudy 77 25 67 19.4 71 71 SE 6 9 30.19 1022 10 16.0934 0 0
1:52 pm 13:52 Cloudy 78 25.6 65 18.3 64 64 SE 7 11 30.19 1022 10 16.0934 0 0
2:52 pm 14:52 Cloudy 77 25 66 18.9 69 69 S 7 11 30.17 1022 10 16.0934 0 0
3:52 pm 15:52 Cloudy 80 26.7 66 18.9 62 62 SSW 9 15 30.15 1021 10 16.0934 0 0
4:52 pm 16:52 Cloudy 79 26.1 64 17.8 60 60 S 8 13 30.14 1021 10 16.0934 0 0
5:52 pm 17:52 Mostly Cloudy 78 25.6 66 18.9 67 67 SSE 5 7 30.13 1020 10 16.0934 0 0
6:52 pm 18:52 Mostly Cloudy 78 25.6 66 18.9 67 67 E 10 17 30.13 1020 10 16.0934 0 0
7:52 pm 19:52 Mostly Cloudy 76 24.4 65 18.3 69 69 SE 12 19 30.14 1021 10 16.0934 0 0
8:52 pm 20:52 Mostly Cloudy 75 23.9 65 18.3 71 71 SSE 9 15 30.14 1021 10 16.0934 0 0
9:30 pm 21:30 Mostly Cloudy 74 23.3 66 18.9 76 76 SE 7 11 30.15 1021 10 16.0934 0 0
9:52 pm 21:52 Mostly Cloudy 73 22.8 66 18.9 79 79 SSE 7 11 30.15 1021 10 16.0934 0 0
10:52 pm 22:52 Cloudy 73 22.8 67 19.4 81 81 SSE 8 13 30.16 1021 10 16.0934 0 0
11:47 pm 23:47 Cloudy with Light Rain 73 23 68 20 83 83 SE 10 17 30.16 1021 7 11.26538 0.001 0.001
11:52 pm 23:52 Cloudy with Light Rain 72 22.2 68 20 87 87 SE 8 13 30.15 1021 7 11.26538 0.001 0.001

Powered by AerisWeather